Date,TemperatureHighF,TemperatureAvgF,TemperatureLowF,DewpointHighF,DewpointAvgF,DewpointLowF,HumidityHigh,HumidityAvg,HumidityLow,PressureMaxIn,PressureMinIn,WindSpeedMaxMPH,WindSpeedAvgMPH,GustSpeedMaxMPH,PrecipitationSumIn
2013-1-1,23.0,18.6,7.3,22.8,18.4,7.1,99,99,99,30.14,30.01,10,5,0,0.00
2013-1-2,25.9,14.3,3.2,25.7,14.1,3.0,99,99,99,30.18,30.07,8,3,0,0.00
2013-1-3,32.0,23.8,16.0,31.8,23.6,15.8,99,99,99,30.26,30.09,14,6,0,0.00
2013-1-4,33.8,22.8,10.9,33.5,22.6,10.7,99,99,99,30.28,30.19,11,5,0,0.00
2013-1-5,36.3,29.6,19.4,36.0,29.3,19.2,99,99,99,30.22,29.97,11,5,0,0.01
2013-1-6,36.0,28.1,16.0,35.7,27.8,15.8,99,99,99,30.30,29.92,19,8,0,0.00
2013-1-7,37.8,26.8,16.5,37.5,26.5,16.3,99,99,99,30.32,30.08,14,5,0,0.00
2013-1-8,44.2,33.7,24.3,43.9,33.4,24.1,99,99,99,30.13,30.05,9,5,0,0.00
2013-1-9,51.4,39.2,27.1,51.1,38.9,26.9,99,99,99,30.44,30.05,14,4,0,0.00
2013-1-10,49.3,37.2,25.5,49.0,36.9,25.3,99,99,99,30.43,29.77,11,5,0,0.28
2013-1-11,58.1,53.5,50.2,57.8,53.2,49.9,99,99,99,29.77,29.65,13,8,0,0.27
2013-1-12,59.7,47.1,31.6,59.4,46.8,31.4,99,99,99,29.85,29.72,16,7,0,0.60
2013-1-13,32.0,25.3,15.6,31.8,25.1,15.4,99,99,99,30.23,29.73,16,10,0,0.00
2013-1-14,25.0,17.5,13.6,24.8,17.3,13.4,99,99,99,30.38,30.24,8,3,0,0.00
2013-1-15,29.7,21.4,12.0,29.5,21.2,11.8,99,99,99,30.35,30.03,10,3,0,0.00
2013-1-16,36.9,29.2,19.0,36.6,29.0,18.8,99,99,99,30.04,29.85,14,4,0,0.00
2013-1-17,34.9,29.0,17.1,34.6,28.8,16.9,99,99,99,30.37,30.00,16,5,0,0.00
2013-1-18,40.8,31.1,19.2,40.5,30.8,19.0,99,99,99,30.40,29.98,17,8,0,0.01
2013-1-19,53.2,41.9,35.6,52.9,41.6,35.3,99,99,99,30.00,29.75,19,10,0,0.00
2013-1-20,37.4,22.6,17.2,37.1,22.4,17.0,99,99,99,30.23,29.91,23,10,0,0.01
2013-1-21,20.5,12.4,4.8,20.3,12.2,4.6,99,99,99,30.27,30.12,25,13,0,0.00
2013-1-22,17.4,9.8,2.1,17.2,9.6,1.9,99,99,99,30.34,30.25,14,8,0,0.00
2013-1-23,33.6,20.2,9.0,33.3,20.0,8.8,99,99,99,30.29,30.00,20,5,0,0.00
2013-1-24,25.7,17.2,7.0,25.5,17.0,6.8,99,99,99,30.54,30.23,14,7,0,0.00
2013-1-25,34.5,24.7,18.3,34.2,24.5,18.1,99,99,99,30.26,29.93,10,5,0,0.00
2013-1-27,41.9,35.5,32.4,41.6,35.2,32.2,99,99,99,30.11,29.89,14,7,0,0.09
2013-1-28,58.1,51.3,41.5,57.8,51.0,41.2,99,99,99,29.90,29.79,15,8,0,0.05
2013-1-29,61.3,57.9,52.5,61.0,57.6,52.2,99,99,99,29.78,29.28,16,10,0,0.08
2013-1-30,53.8,40.0,22.5,53.5,39.8,22.3,99,99,99,29.66,29.20,30,13,0,0.05
2013-1-31,25.3,18.2,6.8,25.1,18.0,6.6,99,99,99,30.17,29.67,29,16,0,0.00
2013-2-1,21.4,12.9,3.4,21.2,12.7,3.2,99,99,99,30.34,30.12,21,9,0,0.00
2013-2-2,29.3,21.1,9.7,29.1,20.9,9.5,99,99,99,30.12,29.91,16,7,0,0.00
2013-2-3,27.5,21.0,11.5,27.3,20.8,11.3,99,99,99,30.02,29.90,19,5,0,0.00
2013-2-4,43.0,30.2,20.8,42.7,29.9,20.6,99,99,99,29.97,29.68,13,6,0,0.00
2013-2-5,39.7,32.3,23.9,39.4,32.0,23.7,99,99,99,30.01,29.72,15,6,0,0.00
2013-2-6,43.9,34.5,27.5,43.6,34.2,27.3,99,99,99,30.16,30.01,8,3,0,0.00
2013-2-7,55.9,39.5,30.2,55.6,39.2,30.0,99,99,99,30.03,29.72,20,7,0,0.19
2013-2-8,33.6,30.4,26.1,33.3,30.2,25.9,99,99,99,30.29,29.86,18,9,0,0.00
2013-2-9,42.1,33.3,28.6,41.8,33.0,28.4,99,99,99,30.31,29.99,8,4,0,0.00
2013-2-10,51.6,43.0,34.3,51.3,42.7,34.0,99,99,99,30.01,29.52,17,9,0,0.80
2013-2-11,47.7,36.8,29.3,47.4,36.5,29.1,99,99,99,30.01,29.56,23,12,0,0.00
2013-2-12,36.3,29.2,23.2,36.0,29.0,23.0,99,99,99,30.05,29.84,11,4,0,0.00
2013-2-13,51.1,35.6,25.0,50.8,35.4,24.8,99,99,99,29.85,29.65,12,3,0,0.00
2013-2-14,46.4,37.5,31.8,46.1,37.2,31.6,99,99,99,29.92,29.67,21,8,0,0.00
2013-2-15,34.2,30.2,23.0,33.9,30.0,22.8,99,99,99,30.11,29.91,17,8,0,0.00
2013-2-16,27.1,21.0,14.2,26.9,20.8,14.0,99,99,99,30.11,30.03,14,9,0,0.00
2013-2-17,36.3,22.8,5.7,36.0,22.6,5.5,99,99,99,30.14,29.93,9,3,0,0.00
2013-2-18,54.1,40.7,29.5,53.8,40.5,29.3,99,99,99,29.91,29.41,23,11,0,0.81
2013-2-19,28.9,22.3,16.5,28.7,22.1,16.3,99,99,99,30.12,29.62,27,18,0,0.01
2013-2-20,26.6,17.8,8.1,26.4,17.6,7.9,99,99,99,30.28,30.13,16,8,0,0.00
2013-2-21,30.7,24.1,12.0,30.5,23.9,11.8,99,99,99,30.27,29.79,17,6,0,0.00
2013-2-22,37.8,32.4,26.6,37.5,32.2,26.4,99,99,99,29.92,29.72,17,6,0,0.28
2013-2-23,31.3,25.3,16.7,31.1,25.1,16.5,99,99,99,29.93,29.86,11,5,0,0.00
2013-2-24,42.3,26.9,15.3,42.0,26.7,15.1,99,99,99,30.06,29.92,5,1,0,0.00
2013-2-25,46.9,34.2,23.7,46.6,33.9,23.5,99,99,99,30.06,29.73,13,5,0,0.00
2013-2-26,37.8,35.5,32.9,37.5,35.2,32.7,99,99,99,29.72,29.29,17,7,0,0.02
2013-2-27,34.7,33.3,32.0,34.4,33.0,31.8,99,99,99,29.65,29.45,14,9,0,0.00
2013-2-28,36.1,32.8,30.9,35.8,32.5,30.7,99,99,99,29.96,29.65,14,9,0,0.00
2013-3-1,31.1,29.4,26.6,30.9,29.2,26.4,99,99,99,30.06,29.94,14,8,0,0.00
2013-3-2,30.2,26.7,20.7,30.0,26.5,20.5,99,99,99,30.09,30.04,14,9,0,0.00
2013-3-3,36.1,25.4,16.9,35.8,25.2,16.7,99,99,99,30.08,29.98,11,4,0,0.00
2013-3-4,37.6,31.4,24.3,37.3,31.1,24.1,99,99,99,30.03,29.80,13,6,0,0.00
2013-3-5,35.4,32.9,28.6,35.1,32.7,28.4,99,99,99,29.83,29.64,24,9,0,0.01
2013-3-6,31.1,28.6,27.1,30.9,28.4,26.9,99,99,99,30.24,29.84,19,12,0,0.00
2013-3-7,38.1,30.5,26.2,37.8,30.2,26.0,99,99,99,30.33,30.23,9,3,0,0.01
2013-3-8,46.2,33.8,22.3,45.9,33.5,22.1,99,99,99,30.39,30.21,9,3,0,0.00
2013-3-9,52.3,41.8,32.5,52.0,41.5,32.3,99,99,99,30.22,29.75,11,6,0,0.00
2013-3-10,61.3,53.0,46.9,61.0,52.7,46.6,99,99,99,29.75,29.54,12,8,0,0.01
2013-3-11,50.5,39.0,32.5,50.2,38.7,32.3,99,99,99,29.81,29.52,17,9,0,0.01
2013-3-12,42.4,34.0,28.6,42.1,33.8,28.4,99,99,99,30.00,29.81,22,12,0,0.01
2013-3-13,36.1,27.7,22.3,35.8,27.5,22.1,99,99,99,30.28,30.01,18,11,0,0.00
2013-3-14,39.9,29.4,20.3,39.6,29.1,20.1,99,99,99,30.29,30.08,11,3,0,0.00
2013-3-15,55.8,46.3,28.8,55.5,46.0,28.6,99,99,99,30.02,29.57,7,3,0,0.00
2013-3-16,44.2,37.8,31.8,43.9,37.5,31.6,99,99,99,30.01,29.52,16,7,0,0.00
2013-3-17,41.9,34.9,30.6,41.6,34.7,30.4,99,99,99,30.06,29.81,15,7,0,0.00
2013-3-18,40.6,35.3,26.6,40.3,35.0,26.4,99,99,99,29.83,29.53,19,8,0,0.00
2013-3-19,43.3,30.7,21.6,42.8,30.4,21.4,99,98,91,30.05,29.83,26,14,0,0.01
2013-3-20,31.5,25.0,20.1,31.0,24.5,19.6,98,98,98,30.06,29.97,23,12,0,0.00
2013-3-21,38.5,24.3,12.9,33.1,22.0,12.4,98,92,70,30.00,29.90,14,5,0,0.00
2013-3-22,49.6,32.1,14.4,35.5,25.1,13.9,98,79,41,29.99,29.89,7,1,0,0.00
2013-3-23,50.0,38.9,31.3,39.9,34.8,30.8,98,87,56,29.99,29.83,16,5,0,0.00
2013-3-24,35.8,32.6,29.3,35.3,32.1,28.8,98,98,98,29.83,29.43,20,11,0,0.00
2013-3-25,34.9,30.9,27.7,34.4,30.4,27.2,98,98,98,30.00,29.54,19,12,0,0.02
2013-3-26,39.0,33.3,29.5,38.5,32.8,29.0,98,98,98,30.21,30.00,14,8,0,0.00
2013-3-27,42.4,34.9,27.9,41.9,34.4,27.4,98,98,98,30.28,30.20,9,5,0,0.00
2013-3-28,53.4,36.1,21.4,52.8,35.6,20.9,98,98,98,30.30,30.20,8,2,0,0.00
2013-3-29,58.8,44.9,28.9,58.2,44.4,28.4,98,98,98,30.23,30.11,6,1,0,0.00
2013-3-30,58.8,44.8,28.8,58.2,44.2,28.3,98,98,98,30.14,29.81,11,3,0,0.00
2013-3-31,63.5,50.6,39.7,62.9,50.1,39.2,98,98,98,29.82,29.68,18,8,0,0.00
2013-4-1,45.7,37.4,28.4,45.2,36.9,27.9,98,98,98,30.13,29.83,18,10,0,0.00
2013-4-2,47.5,34.0,23.4,47.0,33.5,22.9,98,98,98,30.25,30.13,15,6,0,0.00
2013-4-3,51.3,35.9,21.6,50.8,35.4,21.1,98,98,98,30.36,30.23,11,3,0,0.00
2013-4-4,62.1,43.6,24.8,61.5,43.0,24.3,98,98,98,30.23,29.92,7,1,0,0.00
2013-4-5,60.8,46.4,33.3,60.2,45.9,32.8,98,98,98,30.08,29.93,12,6,0,0.00
2013-4-6,73.0,56.1,39.2,72.4,55.6,38.7,98,98,98,30.04,29.60,20,9,0,0.24
2013-4-7,73.6,61.6,50.0,73.0,61.0,49.5,98,98,98,29.85,29.63,17,6,0,0.01
2013-4-8,77.0,64.5,56.5,76.4,63.9,55.9,98,98,98,29.82,29.64,16,7,0,0.00
2013-4-9,77.5,67.6,57.4,76.9,67.0,56.8,98,98,98,29.84,29.73,21,6,0,0.00
2013-4-10,71.6,59.0,46.0,71.0,58.4,45.5,98,98,98,29.77,29.54,19,8,0,0.00
2013-4-11,64.0,51.0,39.7,63.4,50.5,39.2,98,98,98,29.69,29.48,16,8,0,0.00
2013-4-12,45.0,40.0,37.0,44.5,39.5,36.5,98,98,98,29.84,29.56,18,9,0,0.00
2013-4-13,54.1,44.1,38.5,53.5,43.6,38.0,98,98,98,29.93,29.84,17,7,0,0.00
2013-4-14,75.7,57.8,41.7,75.1,57.3,41.2,98,98,98,29.89,29.60,15,7,0,0.01
2013-4-15,67.6,58.1,48.9,67.0,57.6,48.4,98,98,98,29.84,29.66,14,7,0,0.00
2013-4-16,52.7,48.9,45.3,52.2,48.4,44.8,98,98,98,30.11,29.81,13,8,0,0.00
2013-4-17,75.0,56.2,44.4,74.4,55.6,43.9,98,98,98,30.12,29.65,18,7,0,0.00
2013-4-18,73.4,62.7,43.0,72.8,62.1,42.5,98,98,98,29.64,29.45,21,9,0,0.00
2013-4-19,42.8,39.1,37.0,42.3,38.6,36.5,98,98,98,29.92,29.53,22,13,0,0.00
2013-4-20,50.7,40.0,32.2,50.2,39.5,31.7,98,98,98,30.32,29.92,12,6,0,0.00
2013-4-21,58.1,45.0,32.9,57.5,44.5,32.4,98,98,98,30.41,30.23,12,5,0,0.00
2013-4-22,70.5,55.3,37.4,69.9,54.8,36.9,98,98,98,30.24,29.96,10,4,0,0.00
2013-4-23,60.8,54.9,44.6,60.2,54.4,44.1,98,98,98,29.96,29.72,16,6,0,0.00
2013-4-24,51.3,42.7,37.2,50.8,42.2,36.7,98,98,98,30.13,29.82,17,9,0,0.00
2013-4-25,56.1,45.7,37.2,55.5,45.2,36.7,98,98,98,30.25,30.08,19,8,0,0.00
2013-4-26,65.8,51.9,36.1,65.2,51.3,35.6,98,98,98,30.31,30.20,10,4,0,0.00
2013-4-27,63.7,55.4,44.6,63.1,54.8,44.1,98,98,98,30.21,29.86,11,4,0,0.00
2013-4-28,72.5,62.2,57.9,71.9,61.6,57.3,98,98,98,29.85,29.75,9,3,0,0.00
2013-4-29,73.2,62.8,53.8,72.6,62.2,53.2,98,98,98,29.87,29.71,10,5,0,0.00
2013-4-30,83.3,69.0,54.7,82.7,68.4,54.1,98,98,98,29.87,29.76,10,6,0,0.00
2013-5-1,85.1,70.4,55.2,84.5,69.8,54.6,98,98,98,30.03,29.87,10,3,0,0.00
2013-5-2,81.7,64.7,48.4,81.1,64.1,47.9,98,98,98,30.04,29.91,16,5,0,0.00
2013-5-3,73.6,59.7,46.2,73.0,59.2,45.7,98,98,98,29.97,29.73,11,6,0,0.00
2013-5-4,64.9,60.1,56.7,64.3,59.5,56.1,98,98,98,29.93,29.77,12,5,0,0.00
2013-5-5,68.5,60.1,55.8,67.9,59.5,55.2,98,98,98,29.93,29.81,10,4,0,0.00
2013-5-6,70.3,61.4,54.5,69.7,60.8,53.9,98,98,98,29.89,29.81,9,4,0,0.00
2013-5-7,64.2,57.7,55.0,63.6,57.1,54.4,98,98,98,29.92,29.87,8,1,0,0.00
2013-5-8,81.9,78.9,75.0,81.3,78.3,74.4,98,98,98,29.93,29.85,6,5,0,0.00
2013-5-9,68.5,67.9,64.2,67.9,67.3,63.6,98,98,98,29.89,29.73,9,6,0,0.00
2013-5-10,69.1,60.1,48.2,68.5,59.5,47.7,98,98,98,29.88,29.72,11,7,0,0.00
2013-5-11,65.8,53.7,43.3,65.2,53.2,42.8,98,98,98,30.00,29.82,26,8,0,0.00
2013-5-12,58.8,48.4,36.3,58.2,47.9,35.8,98,98,98,30.09,30.00,18,8,0,0.00
2013-5-13,70.0,55.6,36.0,69.4,55.0,35.5,98,98,98,30.11,29.98,12,4,0,0.00
2013-5-14,88.0,70.3,51.4,87.4,69.7,50.9,98,98,98,29.98,29.66,12,6,0,0.00
2013-5-15,86.0,73.2,66.4,85.4,72.6,65.8,98,98,98,29.77,29.68,18,9,0,0.00
2013-5-16,82.0,68.9,65.1,81.4,68.3,64.5,98,98,98,29.82,29.73,5,2,0,0.00
2013-5-17,82.9,75.9,65.3,82.3,75.2,64.7,98,98,98,29.91,29.83,9,4,0,0.00
2013-5-18,78.8,69.8,63.7,78.2,69.2,63.1,98,98,98,29.95,29.89,9,2,0,0.00
2013-5-21,70.9,70.9,70.9,70.3,70.3,70.3,98,98,98,29.70,29.70,12,11,0,0.00
2013-5-22,64.8,63.8,62.6,64.2,63.2,62.0,98,98,98,29.71,29.65,11,8,0,0.00
2013-5-23,63.1,56.3,43.0,62.5,55.8,42.5,98,98,98,30.17,29.70,18,10,0,0.00
2013-5-24,71.4,53.9,37.8,70.8,53.4,37.3,98,98,98,30.32,30.17,12,5,0,0.00
2013-5-25,65.7,53.3,43.5,65.1,52.7,43.0,98,98,98,30.33,30.14,12,2,0,0.00
2013-5-26,68.7,58.6,51.6,68.1,58.0,51.1,98,98,98,30.20,29.97,10,5,0,0.00
2013-5-27,84.7,70.4,60.3,84.1,69.8,59.7,98,98,98,30.01,29.74,16,5,0,0.01
2013-5-28,82.8,75.3,66.9,82.2,74.7,66.3,98,98,98,29.82,29.71,15,6,0,0.00
2013-5-29,87.8,76.5,66.0,87.2,75.9,65.4,98,98,98,29.88,29.79,13,6,0,0.00
2013-5-30,86.7,76.9,68.0,86.1,76.3,67.4,98,98,98,29.88,29.76,18,9,0,0.00
2013-5-31,78.1,72.5,66.2,77.5,71.9,65.6,98,98,98,29.83,29.67,14,6,0,0.00
2013-6-1,74.3,70.0,64.2,73.7,69.4,63.6,98,98,98,29.74,29.61,15,6,0,0.00
2013-6-2,67.1,62.6,54.0,66.5,62.0,53.4,98,98,98,29.95,29.71,11,6,0,0.00
2013-6-3,71.1,59.6,50.0,70.5,59.0,49.5,98,98,98,30.03,29.92,13,4,0,0.00
2013-6-4,57.4,53.0,51.1,56.8,52.4,50.6,98,98,98,30.05,29.97,6,1,0,0.00
2013-6-7,73.2,73.2,73.2,72.6,72.6,72.6,98,98,98,29.79,29.79,5,5,0,0.00
2013-6-8,79.9,70.5,64.2,79.3,69.9,63.6,98,98,98,29.89,29.86,8,1,0,0.00
2013-6-9,83.8,72.5,63.1,83.2,71.9,62.5,98,98,98,29.90,29.70,15,4,0,0.00
2013-6-10,82.6,74.9,66.9,82.0,74.3,66.3,98,98,98,29.79,29.66,12,4,0,0.00
2013-6-11,86.4,72.4,61.7,85.8,71.8,61.1,98,98,98,29.87,29.75,9,3,0,0.00
2013-6-12,95.4,84.1,72.7,94.7,83.5,72.1,98,98,98,29.81,29.52,14,5,0,0.00
2013-6-13,84.0,74.8,64.8,83.4,74.2,64.2,98,98,98,29.91,29.54,24,9,0,0.01
2013-6-14,86.0,70.4,55.2,85.4,69.8,54.6,98,98,98,30.02,29.88,8,3,0,0.00
2013-6-15,83.5,73.0,63.1,82.9,72.4,62.5,98,98,98,29.99,29.82,25,3,0,0.00
2013-6-16,86.0,79.3,73.9,85.4,78.7,73.3,98,98,98,29.91,29.81,15,4,0,0.00
2013-6-17,82.9,76.4,69.4,82.3,75.8,68.8,98,98,98,29.86,29.80,10,2,0,0.00
2013-6-18,89.6,74.3,63.0,89.0,73.7,62.4,98,98,98,29.91,29.80,15,6,0,0.00
2013-6-19,90.3,73.1,59.0,89.7,72.5,58.4,98,98,98,30.00,29.91,7,3,0,0.00
2013-6-20,92.7,75.5,66.6,92.0,74.9,66.0,98,98,98,30.06,29.99,9,3,0,0.00
2013-6-21,91.9,78.0,69.6,91.3,77.4,69.0,98,98,98,30.05,29.85,10,4,0,0.00
2013-6-22,89.1,75.6,70.7,88.5,75.0,70.1,98,98,98,30.04,29.89,11,4,0,0.00
2013-6-23,82.9,76.9,71.8,82.3,76.3,71.2,98,98,98,29.98,29.89,12,4,0,0.00
2013-6-24,89.8,79.0,71.2,89.2,78.4,70.6,98,98,98,30.03,29.85,11,3,0,0.00
2013-6-25,89.2,83.5,71.1,88.6,82.9,70.5,98,98,98,29.90,29.76,16,5,0,0.00
2013-6-26,86.5,80.7,77.7,85.9,80.1,77.1,98,98,98,29.70,29.61,10,4,0,0.00
2013-6-27,101.7,87.8,74.3,99.9,87.1,73.7,98,98,98,29.73,29.63,15,6,0,0.00
2013-6-28,80.6,73.7,70.3,80.0,73.1,69.7,98,98,98,29.67,29.53,12,8,0,0.00
2013-6-29,74.7,73.4,71.2,74.1,72.8,70.6,98,98,98,29.53,29.50,9,7,0,0.00
2013-6-30,76.8,75.1,73.4,76.2,74.5,72.8,98,98,98,29.76,29.73,17,15,0,0.00
2013-7-1,69.1,64.8,63.3,68.5,64.2,62.7,98,98,98,29.86,29.81,11,7,0,0.00
2013-7-3,71.1,70.1,68.7,70.5,69.4,68.1,98,98,98,29.98,29.97,4,2,0,0.00
2013-7-4,80.1,72.6,68.5,79.5,72.0,67.9,98,98,98,29.99,29.97,3,2,0,0.00
2013-7-6,78.4,78.4,78.4,77.8,77.8,77.8,98,98,98,29.98,29.98,4,4,0,0.00
2013-7-10,85.1,79.6,69.1,84.5,79.0,68.5,98,98,98,29.89,29.75,13,6,0,0.00
2013-7-12,85.5,76.2,66.4,84.9,75.6,65.8,98,98,98,30.00,29.96,6,2,0,0.00
2013-7-13,85.6,69.5,63.0,85.0,68.9,62.4,98,98,98,30.05,29.97,4,0,0,0.00
2013-7-14,93.0,80.5,69.8,92.3,79.9,69.2,98,98,98,30.09,30.00,6,2,0,0.00
2013-7-15,91.0,82.0,76.1,90.4,81.4,75.5,98,98,98,30.17,30.09,7,2,0,0.00
2013-7-16,81.3,81.3,81.3,80.7,80.7,80.7,98,98,98,30.19,30.19,0,0,0,0.00
2013-7-17,97.2,92.3,82.0,96.5,91.6,81.4,98,98,98,30.14,30.10,5,2,0,0.00
2013-7-19,95.2,90.1,81.3,94.5,89.5,80.7,98,98,98,29.89,29.75,11,6,0,0.00
2013-7-20,84.7,83.4,82.2,84.1,82.8,81.6,98,98,98,29.78,29.76,2,1,0,0.00